timestamp,wind_dir_avg,wind_spd_avg,wind_spd_max_dir,wind_spd_gust,battery_voltage,lat,long
2023-11-02 00:04:01+00:00,150.0,9.44,146.0,10.49,12.41,47.59359,-54.27349
2023-11-02 00:14:01+00:00,146.0,8.17,145.0,9.14,12.41,47.59359,-54.27349
2023-11-02 00:24:01+00:00,132.0,5.19,135.0,6.43,12.41,47.59359,-54.27349
2023-11-02 00:34:01+00:00,124.0,6.25,124.0,7.69,12.41,47.59359,-54.27349
2023-11-02 00:44:01+00:00,128.0,5.75,118.0,7.34,12.41,47.59359,-54.27349
2023-11-02 00:54:01+00:00,124.0,5.4,121.0,6.82,12.41,47.59359,-54.27349
2023-11-02 01:04:01+00:00,131.0,6.3,122.0,8.0,12.41,47.59359,-54.27349
2023-11-02 01:14:01+00:00,125.0,6.71,126.0,7.99,12.33,47.59359,-54.27349
2023-11-02 01:24:01+00:00,111.0,4.35,120.0,6.09,12.33,47.59359,-54.27349
2023-11-02 01:34:01+00:00,119.0,3.87,132.0,6.55,12.33,47.59359,-54.27349
2023-11-02 01:44:01+00:00,97.0,3.09,118.0,5.28,12.33,47.59359,-54.27349
2023-11-02 01:54:01+00:00,97.0,3.88,112.0,5.56,12.33,47.59359,-54.27349
2023-11-02 02:04:01+00:00,95.0,4.02,105.0,7.13,12.33,47.59359,-54.27349
2023-11-02 02:14:01+00:00,82.0,5.35,77.0,7.78,12.33,47.59359,-54.27349
2023-11-02 02:24:01+00:00,84.0,3.8,81.0,6.66,12.33,47.59359,-54.27349
2023-11-02 02:34:01+00:00,83.0,4.35,108.0,6.9,12.33,47.59359,-54.27349
2023-11-02 02:44:01+00:00,78.0,4.18,90.0,5.45,12.33,47.59359,-54.27349
2023-11-02 02:54:01+00:00,81.0,5.04,69.0,6.93,12.33,47.59359,-54.27349
2023-11-02 03:04:01+00:00,80.0,5.49,96.0,6.87,12.33,47.59359,-54.27349
2023-11-02 03:14:01+00:00,77.0,5.9,66.0,8.05,12.33,47.59359,-54.27349
2023-11-02 03:24:01+00:00,72.0,6.32,68.0,8.0,12.33,47.59359,-54.27349
2023-11-02 03:34:01+00:00,65.0,7.44,60.0,8.55,12.33,47.59359,-54.27349
2023-11-02 03:44:01+00:00,59.0,7.46,55.0,8.75,12.33,47.59359,-54.27349
2023-11-02 03:54:01+00:00,55.0,7.67,55.0,8.75,12.33,47.59359,-54.27349
2023-11-02 04:04:01+00:00,54.0,9.11,55.0,10.3,12.33,47.59359,-54.27349
2023-11-02 04:14:00+00:00,52.0,9.86,49.0,11.31,12.33,47.59359,-54.27349
2023-11-02 04:24:00+00:00,51.0,10.16,49.0,11.12,12.33,47.59359,-54.27349
2023-11-02 04:34:00+00:00,54.0,10.14,45.0,11.63,12.33,47.59359,-54.27349
2023-11-02 04:44:00+00:00,42.0,11.08,39.0,12.36,12.33,47.59359,-54.27349
2023-11-02 04:54:00+00:00,54.0,11.22,48.0,13.59,12.33,47.59359,-54.27349
2023-11-02 05:04:00+00:00,52.0,11.06,45.0,14.49,12.33,47.59359,-54.27349
2023-11-02 05:14:00+00:00,51.0,11.14,50.0,12.99,12.25,47.59359,-54.27349
2023-11-02 05:24:00+00:00,44.0,12.28,38.0,14.01,12.25,47.59359,-54.27349
2023-11-02 05:34:00+00:00,51.0,11.0,49.0,13.57,12.25,47.59359,-54.27349
2023-11-02 05:44:00+00:00,50.0,11.56,55.0,13.25,12.25,47.59359,-54.27349
2023-11-02 05:54:00+00:00,46.0,11.41,41.0,13.12,12.25,47.59359,-54.27349
2023-11-02 06:04:00+00:00,45.0,10.61,38.0,12.47,12.25,47.59359,-54.27349
2023-11-02 06:14:00+00:00,51.0,11.92,41.0,13.2,12.17,47.59359,-54.27349
2023-11-02 06:24:00+00:00,48.0,11.56,43.0,13.61,12.17,47.59359,-54.27349
2023-11-02 06:34:00+00:00,46.0,11.76,50.0,14.18,12.17,47.59359,-54.27349
2023-11-02 06:44:00+00:00,48.0,12.18,48.0,14.1,12.17,47.59359,-54.27349
2023-11-02 06:54:00+00:00,49.0,11.85,48.0,14.33,12.17,47.59359,-54.27349
2023-11-02 07:04:00+00:00,46.0,12.75,48.0,14.78,12.17,47.59359,-54.27349
2023-11-02 07:14:00+00:00,45.0,12.24,44.0,13.49,12.17,47.59359,-54.27349
2023-11-02 07:24:00+00:00,34.0,12.6,40.0,13.98,12.17,47.59359,-54.27349
2023-11-02 07:34:00+00:00,32.0,12.81,34.0,14.43,12.17,47.59359,-54.27349
2023-11-02 07:44:00+00:00,35.0,13.09,38.0,15.51,12.17,47.59359,-54.27349
2023-11-02 07:54:00+00:00,38.0,13.58,37.0,16.02,12.17,47.59359,-54.27349
2023-11-02 08:04:00+00:00,20.0,12.18,20.0,14.28,12.17,47.59359,-54.27349
2023-11-02 08:14:00+00:00,25.0,11.73,30.0,14.05,12.17,47.59359,-54.27349
2023-11-02 08:24:00+00:00,25.0,11.87,32.0,13.26,12.17,47.59359,-54.27349
2023-11-02 08:34:00+00:00,20.0,11.69,13.0,15.43,12.17,47.59359,-54.27349
2023-11-02 08:44:00+00:00,22.0,11.39,22.0,12.76,12.17,47.59359,-54.27349
2023-11-02 08:54:00+00:00,15.0,12.36,13.0,13.45,12.17,47.59359,-54.27349
2023-11-02 09:04:00+00:00,15.0,11.1,20.0,13.35,12.17,47.59359,-54.27349
2023-11-02 09:14:00+00:00,14.0,11.13,11.0,12.46,12.17,47.59359,-54.27349
2023-11-02 09:24:00+00:00,12.0,9.65,18.0,12.02,12.17,47.59359,-54.27349
2023-11-02 09:34:00+00:00,20.0,10.76,20.0,12.31,12.17,47.59359,-54.27349
2023-11-02 09:44:00+00:00,10.0,9.98,16.0,12.03,12.17,47.59359,-54.27349
2023-11-02 09:54:00+00:00,15.0,10.83,11.0,12.21,12.17,47.59359,-54.27349
2023-11-02 10:04:00+00:00,8.0,10.55,0.0,13.44,12.17,47.59359,-54.27349
2023-11-02 10:14:01+00:00,3.0,11.19,4.0,12.75,12.09,47.59359,-54.27349
2023-11-02 10:24:01+00:00,3.0,11.08,5.0,12.66,12.09,47.59359,-54.27349
2023-11-02 10:34:01+00:00,0.0,8.98,2.0,10.23,12.09,47.59359,-54.27349
2023-11-02 10:44:01+00:00,351.0,8.91,354.0,9.89,12.09,47.59359,-54.27349
2023-11-02 10:54:01+00:00,356.0,9.76,349.0,10.96,12.09,47.59359,-54.27349
2023-11-02 11:04:01+00:00,356.0,9.43,9.0,10.78,12.09,47.59359,-54.27349
2023-11-02 11:14:00+00:00,353.0,10.32,344.0,11.59,12.17,47.59359,-54.27349
2023-11-02 11:24:00+00:00,4.0,10.71,8.0,12.42,12.17,47.59359,-54.27349
2023-11-02 11:34:00+00:00,359.0,8.97,8.0,10.29,12.17,47.59359,-54.27349
2023-11-02 11:44:00+00:00,343.0,10.44,343.0,11.81,12.17,47.59359,-54.27349
2023-11-02 11:54:00+00:00,353.0,10.91,331.0,13.17,12.17,47.59359,-54.27349
2023-11-02 12:04:00+00:00,349.0,11.52,7.0,13.46,12.17,47.59359,-54.27349
2023-11-02 12:14:00+00:00,343.0,10.85,340.0,12.18,12.33,47.59359,-54.27349
2023-11-02 12:24:00+00:00,349.0,12.77,339.0,14.4,12.33,47.59359,-54.27349
2023-11-02 12:34:00+00:00,344.0,11.52,346.0,14.22,12.33,47.59359,-54.27349
2023-11-02 12:44:00+00:00,343.0,11.87,347.0,14.07,12.33,47.59359,-54.27349
2023-11-02 12:54:00+00:00,343.0,10.78,354.0,12.38,12.33,47.59359,-54.27349
2023-11-02 13:04:00+00:00,344.0,12.65,347.0,15.05,12.33,47.59359,-54.27349
2023-11-02 13:14:00+00:00,341.0,11.06,326.0,12.81,12.81,47.59359,-54.27349
2023-11-02 13:24:00+00:00,340.0,10.46,331.0,11.9,12.81,47.59359,-54.27349
2023-11-02 13:34:00+00:00,343.0,11.78,343.0,14.07,12.81,47.59359,-54.27349
2023-11-02 13:44:00+00:00,347.0,11.49,346.0,14.23,12.81,47.59359,-54.27349
2023-11-02 13:54:00+00:00,346.0,9.95,344.0,11.0,12.81,47.59359,-54.27349
2023-11-02 14:04:00+00:00,349.0,11.17,347.0,13.11,12.81,47.59359,-54.27349
2023-11-02 14:14:00+00:00,336.0,12.99,331.0,14.64,13.21,47.59359,-54.27349
2023-11-02 14:24:00+00:00,348.0,10.6,357.0,12.5,13.21,47.59359,-54.27349
2023-11-02 14:34:00+00:00,349.0,11.68,343.0,14.84,13.21,47.59359,-54.27349
2023-11-02 14:44:00+00:00,345.0,10.52,334.0,12.4,13.21,47.59359,-54.27349
2023-11-02 14:54:00+00:00,333.0,11.28,327.0,13.38,13.21,47.59359,-54.27349
2023-11-02 15:04:00+00:00,337.0,10.45,326.0,12.79,13.21,47.59359,-54.27349
2023-11-02 15:14:01+00:00,336.0,11.5,337.0,14.79,13.21,47.59359,-54.27349
2023-11-02 15:24:01+00:00,330.0,13.6,330.0,16.32,13.21,47.59359,-54.27349
2023-11-02 15:34:01+00:00,330.0,14.33,331.0,17.04,13.21,47.59359,-54.27349
2023-11-02 15:44:01+00:00,328.0,14.07,331.0,16.01,13.21,47.59359,-54.27349
2023-11-02 15:54:01+00:00,337.0,12.87,333.0,15.36,13.21,47.59359,-54.27349
2023-11-02 16:04:01+00:00,331.0,15.44,333.0,17.42,13.21,47.59359,-54.27349
2023-11-02 16:14:01+00:00,336.0,13.23,327.0,16.79,13.53,47.59359,-54.27349
2023-11-02 16:24:01+00:00,330.0,13.88,331.0,17.25,13.53,47.59359,-54.27349
2023-11-02 16:34:01+00:00,334.0,12.64,326.0,16.86,13.53,47.59359,-54.27349
2023-11-02 16:44:01+00:00,345.0,15.43,330.0,17.53,13.53,47.59359,-54.27349
2023-11-02 16:54:01+00:00,331.0,15.13,333.0,17.15,13.53,47.59359,-54.27349
2023-11-02 17:04:01+00:00,336.0,13.78,336.0,17.14,13.53,47.59359,-54.27349
2023-11-02 17:14:00+00:00,350.0,14.42,346.0,16.45,14.4,47.59359,-54.27349
2023-11-02 17:24:00+00:00,0.0,11.84,3.0,14.52,14.4,47.59359,-54.27349
2023-11-02 17:34:00+00:00,359.0,15.44,6.0,18.37,14.4,47.59359,-54.27349
2023-11-02 17:44:00+00:00,345.0,15.49,3.0,18.92,14.4,47.59359,-54.27349
2023-11-02 17:54:00+00:00,337.0,11.55,328.0,13.49,14.4,47.59359,-54.27349
2023-11-02 18:04:00+00:00,357.0,13.19,2.0,16.43,14.4,47.59359,-54.27349
2023-11-02 18:14:01+00:00,357.0,13.01,359.0,15.26,14.32,47.59359,-54.27349
2023-11-02 18:24:01+00:00,349.0,12.97,346.0,15.1,14.32,47.59359,-54.27349
2023-11-02 18:34:01+00:00,333.0,11.14,330.0,13.74,14.32,47.59359,-54.27349
2023-11-02 18:44:01+00:00,342.0,8.29,333.0,10.04,14.32,47.59359,-54.27349
2023-11-02 18:54:01+00:00,326.0,11.49,329.0,13.73,14.32,47.59359,-54.27349
2023-11-02 19:04:01+00:00,325.0,10.53,306.0,13.44,14.32,47.59359,-54.27349
2023-11-02 19:14:01+00:00,323.0,12.5,326.0,15.08,13.44,47.59359,-54.27349
2023-11-02 19:24:01+00:00,329.0,12.19,329.0,14.38,13.44,47.59359,-54.27349
2023-11-02 19:34:01+00:00,322.0,12.49,329.0,14.42,13.44,47.59359,-54.27349
2023-11-02 19:44:01+00:00,328.0,14.02,329.0,16.62,13.44,47.59359,-54.27349
2023-11-02 19:54:01+00:00,325.0,13.85,330.0,15.55,13.44,47.59359,-54.27349
2023-11-02 20:04:01+00:00,335.0,12.58,330.0,15.93,13.44,47.59359,-54.27349
2023-11-02 20:14:01+00:00,342.0,11.61,324.0,14.84,12.97,47.59359,-54.27349
2023-11-02 20:24:01+00:00,333.0,12.87,329.0,15.66,12.97,47.59359,-54.27349
2023-11-02 20:34:01+00:00,328.0,13.56,329.0,16.48,12.97,47.59359,-54.27349
2023-11-02 20:44:01+00:00,325.0,12.3,325.0,14.85,12.97,47.59359,-54.27349
2023-11-02 20:54:01+00:00,335.0,10.95,338.0,12.99,12.97,47.59359,-54.27349
2023-11-02 21:04:01+00:00,327.0,9.98,322.0,11.67,12.97,47.59359,-54.27349
2023-11-02 21:14:01+00:00,324.0,8.77,315.0,10.88,12.57,47.59359,-54.27349
2023-11-02 21:24:01+00:00,325.0,9.03,316.0,11.0,12.57,47.59359,-54.27349
2023-11-02 21:34:01+00:00,307.0,8.55,302.0,11.15,12.57,47.59359,-54.27349
2023-11-02 21:44:01+00:00,313.0,8.92,303.0,11.44,12.57,47.59359,-54.27349
2023-11-02 21:54:01+00:00,310.0,8.61,298.0,11.44,12.57,47.59359,-54.27349
2023-11-02 22:04:01+00:00,298.0,9.16,303.0,10.65,12.57,47.59359,-54.27349
2023-11-02 22:14:01+00:00,298.0,9.1,297.0,10.64,12.49,47.59359,-54.27349
2023-11-02 22:24:01+00:00,311.0,10.07,306.0,11.77,12.49,47.59359,-54.27349
2023-11-02 22:34:01+00:00,294.0,8.95,295.0,11.01,12.49,47.59359,-54.27349
2023-11-02 22:44:01+00:00,303.0,9.31,306.0,11.06,12.49,47.59359,-54.27349
2023-11-02 22:54:01+00:00,303.0,9.1,302.0,11.19,12.49,47.59359,-54.27349
2023-11-02 23:04:01+00:00,300.0,9.64,302.0,11.3,12.49,47.59359,-54.27349
2023-11-02 23:14:01+00:00,292.0,8.86,302.0,10.82,12.41,47.59359,-54.27349
2023-11-02 23:24:01+00:00,300.0,8.59,302.0,11.1,12.41,47.59359,-54.27349
2023-11-02 23:34:01+00:00,304.0,9.53,299.0,11.33,12.41,47.59359,-54.27349
2023-11-02 23:44:01+00:00,315.0,8.12,304.0,11.2,12.41,47.59359,-54.27349
2023-11-02 23:54:01+00:00,317.0,8.47,300.0,10.71,12.41,47.59359,-54.27349
